1513461600.31,36737,7.06,72328.3,-14.11,-46.61,-46.69,0,*6B
1513461601.6,36738,7.06,72332.5,-14.09,-46.69,-46.69,0,*65
1513461602.84,36739,7.06,72334.3,-14.11,-46.89,-47.09,0,*64
1513461604.1,36740,7.06,72332.3,-14.11,-47.03,-47.03,0,*63
1513461605.34,36741,7.06,72334.3,-14.11,-47.03,-47.09,0,*68
1513461606.58,36742,7.06,72332.0,-14.11,-46.83,-47.03,0,*68
1513461607.84,36743,7.06,72332.0,-14.11,-47.03,-46.89,0,*63
1513461609.07,36744,7.06,72330.0,-14.11,-46.83,-46.83,0,*67
1513461610.34,36745,7.06,72328.8,-14.11,-46.49,-46.49,0,*66
1513461611.59,36746,7.06,72330.5,-14.11,-46.61,-46.83,0,*69
1513461612.86,36747,7.06,72328.0,-14.11,-46.49,-46.49,0,*64
1513461614.13,36748,7.06,72332.0,-14.11,-46.41,-46.49,0,*63
1513461615.39,36749,7.06,72332.0,-14.11,-46.41,-46.41,0,*6A
1513461616.68,36750,7.06,72328.5,-14.09,-46.49,-46.61,0,*61
1513461617.95,36751,7.06,72330.8,-14.11,-46.69,-46.61,0,*6B
1513461619.22,36752,7.06,72336.0,-14.11,-46.27,-46.41,0,*60
1513461620.51,36753,7.06,72334.3,-14.09,-46.41,-46.49,0,*60
1513461621.78,36754,7.06,72330.8,-14.09,-46.61,-46.83,0,*63
1513461623.06,36755,7.06,72334.8,-14.09,-46.61,-46.83,0,*62
1513461624.35,36756,7.06,72332.0,-14.09,-46.61,-46.61,0,*6D
1513461625.64,36757,7.06,72332.3,-14.09,-46.49,-46.61,0,*66
1513461626.94,36758,7.06,72330.3,-14.09,-46.61,-46.49,0,*69
1513461628.23,36759,7.13,72336.0,-14.09,-46.49,-46.69,0,*60
1513461629.46,36760,7.06,72332.0,-14.11,-46.83,-46.83,0,*61
1513461630.73,36761,7.06,72334.8,-14.09,-46.83,-46.89,0,*63
1513461632.0,36762,7.06,72334.8,-14.09,-46.83,-46.89,0,*60
1513461633.29,36763,7.06,72332.8,-14.09,-46.61,-46.61,0,*6B
1513461634.56,36764,7.06,72334.3,-14.11,-46.49,-46.41,0,*6D
1513461635.86,36765,7.06,72336.0,-14.09,-46.49,-46.41,0,*65
1513461637.15,36766,7.06,72332.3,-14.09,-46.41,-46.27,0,*6E
1513461638.44,36767,7.06,72334.0,-14.09,-46.41,-46.41,0,*6F
1513461639.74,36768,7.06,72330.0,-14.09,-46.49,-46.49,0,*60
1513461641.01,36769,7.06,72328.3,-14.11,-46.27,-46.41,0,*68
1513461642.3,36770,7.06,72328.0,-14.09,-46.41,-46.27,0,*69
1513461643.57,36771,7.06,72334.3,-14.11,-46.27,-46.41,0,*61
1513461644.84,36772,7.06,72332.8,-14.09,-46.41,-46.21,0,*6D
1513461646.1,36773,7.06,72330.0,-14.11,-46.41,-46.41,0,*63
1513461647.39,36774,7.06,72332.0,-14.09,-46.49,-46.41,0,*65
1513461648.66,36775,7.06,72332.0,-14.05,-46.07,-45.95,0,*68
1513461649.97,36776,7.06,72330.0,-14.05,-46.15,-46.15,0,*63
1513461651.27,36777,7.06,72334.5,-14.05,-46.15,-46.15,0,*62
1513461652.52,36778,7.06,72334.0,-14.05,-46.21,-46.21,0,*6D
1513461653.76,36779,7.06,72334.5,-14.05,-46.35,-46.21,0,*69
1513461655.04,36780,7.06,72330.5,-14.05,-46.35,-46.15,0,*68
1513461656.33,36781,7.06,72334.3,-14.09,-46.41,-46.27,0,*67
1513461657.58,36782,7.06,72332.5,-14.05,-46.35,-46.35,0,*68
1513461658.86,36783,7.06,72332.8,-14.05,-46.15,-46.21,0,*6E
1513461660.13,36784,7.06,72332.3,-14.05,-46.55,-46.41,0,*6B
1513461661.43,36785,7.06,72334.3,-14.05,-46.15,-46.15,0,*6F
1513461662.74,36786,7.06,72332.3,-14.05,-46.15,-46.15,0,*6C
1513461664.01,36787,7.06,72334.3,-14.05,-46.35,-46.41,0,*6E
1513461665.28,36788,7.06,72332.8,-14.05,-46.21,-46.15,0,*65
1513461666.57,36789,7.06,72334.8,-14.05,-46.61,-46.61,0,*63
1513461667.82,36790,7.06,72334.5,-14.05,-46.75,-46.83,0,*62
1513461669.11,36791,7.06,72332.5,-14.05,-46.41,-46.41,0,*6A
1513461670.38,36792,7.06,72332.8,-14.05,-46.55,-46.41,0,*6C
1513461671.63,36793,7.06,72334.0,-14.05,-46.97,-46.83,0,*6D
1513461672.89,36794,7.06,72334.8,-14.05,-46.83,-46.83,0,*6F
1513461674.13,36795,7.06,72332.5,-14.05,-46.55,-46.55,0,*6E
1513461675.41,36796,7.06,72332.8,-14.05,-46.35,-46.15,0,*6F
1513461676.7,36797,7.06,72334.0,-14.05,-46.41,-46.41,0,*6C
1513461677.95,36798,7.06,72330.3,-14.05,-46.55,-46.55,0,*63
1513461679.22,36799,7.13,72332.5,-14.05,-46.35,-46.15,0,*60
1513461680.47,36800,7.06,72330.5,-14.05,-46.35,-46.35,0,*6D
1513461681.74,36801,7.06,72334.0,-14.05,-46.55,-46.61,0,*6B
1513461682.99,36802,7.06,72332.8,-14.05,-46.75,-46.83,0,*66
1513461684.23,36803,7.13,72334.3,-14.05,-46.75,-46.83,0,*67
1513461685.5,36804,7.06,72330.8,-14.05,-46.97,-47.03,0,*65
1513461686.77,36805,7.06,72330.5,-14.05,-46.61,-46.83,0,*64
1513461688.04,36806,7.06,72330.3,-14.05,-46.97,-47.03,0,*67
1513461689.33,36807,7.06,72332.0,-14.05,-47.03,-47.03,0,*6A
1513461690.58,36808,7.06,72332.5,-14.05,-46.97,-46.97,0,*65
1513461691.85,36809,7.06,72332.5,-14.05,-46.55,-46.61,0,*63
1513461693.14,36810,7.06,72334.3,-14.05,-46.61,-46.61,0,*6C
1513461694.4,36811,7.06,72332.5,-14.05,-46.41,-46.35,0,*6E
1513461695.67,36812,7.06,72330.8,-14.05,-46.41,-46.35,0,*6D
1513461696.95,36813,7.06,72332.5,-14.05,-46.41,-46.61,0,*6D
1513461698.2,36814,7.06,72332.0,-14.05,-46.83,-46.75,0,*61
1513461699.49,36815,7.06,72332.5,-14.05,-46.41,-46.41,0,*69
1513461700.74,36816,7.06,72332.5,-14.05,-46.55,-46.55,0,*6A
1513461702.01,36817,7.06,72332.0,-14.05,-46.41,-46.55,0,*6E
1513461703.25,36818,7.06,72332.0,-14.05,-46.55,-46.75,0,*66
1513461704.5,36819,7.06,72334.3,-14.05,-46.75,-46.83,0,*6C
1513461705.75,36820,7.06,72332.3,-14.05,-46.83,-46.97,0,*6A
1513461707.01,36821,7.06,72334.0,-14.05,-46.97,-47.03,0,*62
1513461708.26,36822,7.06,72334.5,-14.09,-47.09,-47.09,0,*61
1513461709.5,36823,7.06,72332.3,-14.09,-47.09,-47.09,0,*60
1513461710.77,36824,7.06,72336.5,-14.09,-46.69,-46.83,0,*63
1513461712.04,36825,7.06,72332.8,-14.11,-46.69,-46.89,0,*61
1513461713.26,36826,7.06,72334.0,-14.11,-46.83,-46.83,0,*6C
1513461714.53,36827,7.06,72332.5,-14.11,-46.69,-46.69,0,*6D
1513461715.82,36828,7.06,72332.3,-14.09,-46.69,-46.69,0,*6B
1513461717.11,36829,7.06,72338.3,-14.09,-46.49,-46.41,0,*62
1513461718.41,36830,7.06,72332.5,-14.09,-46.49,-46.61,0,*68
1513461719.7,36831,7.06,72332.3,-14.09,-46.69,-46.69,0,*63
1513461720.99,36832,7.06,72336.3,-14.09,-46.69,-46.69,0,*60
1513461722.29,36833,7.06,72332.8,-14.09,-46.69,-46.49,0,*63
1513461723.56,36834,7.06,72332.0,-14.09,-46.69,-46.83,0,*62
1513461724.83,36835,7.06,72334.5,-14.09,-46.83,-46.89,0,*6D
1513461726.11,36836,7.06,72334.5,-14.09,-46.83,-46.89,0,*6E
1513461727.37,36837,7.06,72332.8,-14.11,-46.69,-46.69,0,*6C
1513461728.62,36838,7.06,72330.3,-14.09,-46.83,-46.83,0,*6A
1513461729.86,36839,7.06,72332.0,-14.11,-46.83,-47.03,0,*6B
1513461731.15,36840,7.06,72334.5,-14.09,-46.69,-46.61,0,*6D
1513461732.43,36841,7.06,72332.5,-14.11,-46.49,-46.49,0,*6D
1513461733.72,36842,7.06,72334.0,-14.09,-46.49,-46.69,0,*65
1513461734.99,36843,7.06,72334.8,-14.11,-46.49,-46.61,0,*65
1513461736.28,36844,7.06,72332.8,-14.09,-46.49,-46.41,0,*69
1513461737.57,36845,7.06,72334.3,-14.09,-46.61,-46.61,0,*60
1513461738.84,36846,7.06,72330.8,-14.11,-46.49,-46.61,0,*60
1513461740.1,36847,7.06,72330.5,-14.11,-46.49,-46.61,0,*61
1513461741.4,36848,7.06,72332.3,-14.09,-46.49,-46.69,0,*6F
1513461742.67,36849,7.06,72332.5,-14.11,-46.89,-46.89,0,*65
1513461743.93,36850,7.06,72334.0,-14.11,-47.03,-47.03,0,*6D
1513461745.18,36851,7.06,72330.3,-14.11,-47.09,-47.23,0,*64
1513461746.41,36852,7.06,72330.5,-14.11,-47.03,-47.09,0,*65
1513461747.65,36853,7.06,72330.8,-14.11,-47.03,-47.09,0,*64
1513461748.86,36854,7.06,72332.3,-14.11,-47.09,-47.09,0,*69
1513461750.1,36855,7.06,72334.8,-14.11,-47.23,-47.09,0,*60
1513461751.37,36856,7.06,72330.8,-14.11,-46.69,-46.69,0,*6B
1513461752.64,36857,7.06,72332.0,-14.11,-46.49,-46.41,0,*62
1513461753.9,36858,7.06,72334.8,-14.11,-46.61,-46.69,0,*6D
1513461755.17,36859,7.06,72334.3,-14.11,-46.89,-47.03,0,*67
1513461756.4,36860,7.06,72334.8,-14.11,-47.03,-47.09,0,*64
1513461757.67,36861,7.06,72334.5,-14.13,-46.75,-46.89,0,*6E
1513461758.92,36862,7.06,72328.8,-14.15,-46.69,-46.55,0,*67
1513461760.16,36863,7.06,72326.8,-14.13,-46.75,-46.75,0,*6F
1513461761.43,36864,7.06,72332.3,-14.13,-46.69,-46.55,0,*67
1513461762.7,36865,7.06,72334.0,-14.13,-46.55,-46.69,0,*66
1513461764.0,36866,7.13,72338.8,-14.13,-46.89,-46.89,0,*6A
1513461765.27,36867,7.06,72334.5,-14.13,-46.75,-46.89,0,*68
1513461766.53,36868,7.06,72334.3,-14.13,-46.75,-46.89,0,*67
1513461767.78,36869,7.06,72332.0,-14.13,-47.09,-46.97,0,*63
1513461769.03,36870,7.06,72334.0,-14.13,-46.97,-46.97,0,*6D
1513461770.28,36871,7.06,72334.8,-14.15,-46.89,-46.97,0,*65
1513461771.53,36872,7.06,72338.0,-14.15,-46.89,-46.97,0,*66
1513461772.8,36873,7.06,72330.3,-14.13,-47.09,-46.89,0,*67
1513461774.01,36874,7.06,72332.5,-14.15,-47.17,-47.09,0,*60
1513461775.23,36875,7.06,72338.0,-14.15,-47.31,-47.17,0,*6A
1513461776.48,36876,7.06,72332.8,-14.13,-47.17,-47.31,0,*6F
1513461777.7,36877,7.06,72334.0,-14.15,-46.97,-47.09,0,*6A
1513461778.92,36878,7.06,72332.5,-14.15,-47.09,-47.17,0,*6C
1513461780.14,36879,7.06,72338.3,-14.15,-47.09,-47.17,0,*6D
1513461781.35,36880,7.06,72334.5,-14.15,-47.09,-47.09,0,*64
1513461782.57,36881,7.06,72332.8,-14.15,-47.17,-47.09,0,*6A
1513461783.78,36882,7.06,72334.8,-14.15,-47.17,-47.17,0,*66
1513461785.04,36883,7.06,72334.0,-14.17,-46.83,-46.83,0,*65
1513461786.29,36884,7.06,72334.8,-14.21,-46.75,-46.83,0,*6E
1513461787.57,36885,7.06,72332.5,-14.21,-46.61,-46.55,0,*61
1513461788.82,36886,7.06,72332.5,-14.15,-46.49,-46.35,0,*69
1513461790.07,36887,7.06,72328.8,-14.17,-46.75,-46.83,0,*68
1513461791.32,36888,7.06,72332.0,-14.17,-46.83,-46.75,0,*67
1513461792.59,36889,7.06,72332.3,-14.17,-46.41,-46.35,0,*6C
1513461793.88,36890,7.06,72332.5,-14.17,-46.41,-46.41,0,*67
1513461795.13,36891,7.06,72330.5,-14.17,-46.55,-46.55,0,*66
1513461796.4,36892,7.06,72330.8,-14.17,-46.41,-46.55,0,*60
1513461797.66,36893,7.06,72330.5,-14.17,-46.75,-46.61,0,*61
1513461798.91,36894,7.06,72334.0,-14.17,-46.75,-46.75,0,*63
1513461800.17,36895,7.06,72332.5,-14.17,-46.75,-46.61,0,*67
1513461801.47,36896,7.06,72334.8,-14.17,-46.61,-46.61,0,*61
1513461802.72,36897,7.06,72334.5,-14.15,-46.27,-46.21,0,*64
1513461803.99,36898,7.06,72332.0,-14.15,-46.49,-46.49,0,*6D
1513461805.26,36899,7.06,72328.0,-14.13,-46.55,-46.89,0,*6B
1513461806.51,36900,7.06,72332.5,-14.15,-46.69,-46.55,0,*62
1513461807.76,36901,7.06,72332.8,-14.15,-46.21,-46.27,0,*6A
1513461809.03,36902,7.06,72334.8,-14.13,-46.35,-46.27,0,*6A
1513461810.28,36903,7.06,72334.5,-14.13,-46.35,-46.35,0,*68
1513461811.53,36904,7.06,72330.8,-14.15,-46.35,-46.49,0,*62
1513461812.8,36905,7.06,72330.5,-14.13,-46.69,-46.75,0,*63
1513461814.03,36906,7.06,72332.3,-14.15,-46.55,-46.55,0,*6B
1513461815.25,36907,7.06,72330.3,-14.15,-46.55,-46.55,0,*6A
1513461816.51,36908,7.06,72332.8,-14.15,-46.69,-46.69,0,*65
1513461817.78,36909,7.06,72334.0,-14.15,-46.69,-46.69,0,*64
1513461819.0,36910,7.06,72334.0,-14.15,-46.75,-46.55,0,*6E
1513461820.25,36911,7.06,72332.3,-14.15,-46.89,-46.75,0,*6E
1513461821.5,36912,7.06,72332.0,-14.15,-46.75,-46.89,0,*6D
1513461822.72,36913,7.06,72334.8,-14.15,-47.09,-46.97,0,*69
1513461823.97,36914,7.06,72336.5,-14.15,-46.89,-46.97,0,*67
1513461825.22,36915,7.06,72330.3,-14.15,-46.55,-46.49,0,*64
1513461826.49,36916,7.06,72334.0,-14.15,-46.69,-46.69,0,*6A
1513461827.73,36917,7.06,72336.3,-14.15,-46.75,-46.69,0,*66
1513461828.97,36918,7.06,72334.3,-14.15,-46.75,-46.89,0,*67
1513461830.21,36919,7.06,72334.3,-14.15,-46.75,-46.89,0,*66
1513461831.44,36920,7.06,72334.8,-14.15,-46.97,-46.97,0,*6F
1513461832.66,36921,7.06,72338.8,-14.15,-47.09,-47.09,0,*6E
1513461833.92,36922,7.06,72332.8,-14.17,-47.03,-47.17,0,*6A
1513461835.17,36923,7.06,72332.3,-14.17,-46.75,-46.97,0,*62
1513461836.46,36924,7.06,72334.0,-14.17,-47.03,-47.03,0,*69
1513461837.73,36925,7.06,72332.8,-14.17,-46.61,-46.55,0,*6F
1513461839.0,36926,7.06,72332.0,-14.21,-46.55,-46.41,0,*6B
1513461840.25,36927,7.06,72332.3,-14.15,-46.49,-46.55,0,*65
1513461841.53,36928,7.06,72336.0,-14.17,-46.61,-46.83,0,*69
1513461842.8,36929,7.06,72334.0,-14.17,-46.61,-46.75,0,*61
1513461844.03,36930,7.06,72332.5,-14.15,-46.97,-46.97,0,*6E
1513461845.32,36931,7.06,72336.5,-14.17,-47.03,-47.03,0,*6D
1513461846.57,36932,7.06,72334.5,-14.21,-46.83,-46.97,0,*6E
1513461847.83,36933,7.06,72334.5,-14.21,-46.97,-46.83,0,*6F
1513461849.09,36934,7.06,72334.8,-14.21,-46.83,-46.83,0,*6D
1513461850.34,36935,7.06,72334.3,-14.17,-46.83,-46.75,0,*60
1513461851.6,36936,7.06,72334.5,-14.21,-46.83,-46.97,0,*6A
1513461852.89,36937,7.06,72334.3,-14.21,-46.41,-46.41,0,*6E
1513461854.17,36938,7.06,72330.5,-14.17,-46.55,-46.41,0,*61
1513461855.43,36939,7.06,72334.5,-14.17,-46.41,-46.35,0,*66
1513461856.71,36940,7.06,72332.3,-14.17,-46.55,-46.41,0,*6E
1513461857.96,36941,7.06,72334.0,-14.17,-46.35,-46.35,0,*6A
1513461859.23,36942,7.06,72334.3,-14.17,-46.27,-46.35,0,*6A
1513461860.53,36943,7.06,72332.8,-14.17,-46.61,-46.61,0,*68
1513461861.78,36944,7.06,72334.8,-14.17,-46.97,-46.97,0,*6F
1513461863.05,36945,7.13,72336.3,-14.17,-46.61,-46.55,0,*69
1513461864.32,36946,7.06,72334.3,-14.17,-46.41,-46.35,0,*6E
1513461865.59,36947,7.06,72332.3,-14.17,-46.61,-46.83,0,*60
1513461866.85,36948,7.06,72334.3,-14.21,-46.97,-46.97,0,*66
1513461868.1,36949,7.06,72332.8,-14.17,-46.75,-46.83,0,*6B
1513461869.32,36950,7.06,72334.3,-14.15,-46.97,-47.17,0,*61
1513461870.57,36951,7.06,72332.0,-14.15,-46.97,-46.89,0,*66
1513461871.83,36952,7.06,72332.3,-14.21,-46.83,-46.83,0,*6D
1513461873.1,36953,7.06,72332.0,-14.17,-46.55,-46.41,0,*6C
1513461874.38,36954,7.06,72332.5,-14.21,-46.61,-46.55,0,*6C
1513461875.64,36955,7.06,72332.8,-14.21,-46.83,-46.83,0,*6A
1513461876.89,36956,7.06,72334.5,-14.21,-46.97,-46.97,0,*69
1513461878.16,36957,7.06,72332.3,-14.17,-47.03,-47.17,0,*68
1513461879.45,36958,7.06,72336.5,-14.17,-47.03,-47.03,0,*62
1513461880.7,36959,7.06,72334.3,-14.21,-46.75,-46.75,0,*66
1513461881.98,36960,7.06,72332.3,-14.21,-46.27,-46.35,0,*6F
1513461883.27,36961,7.06,72330.3,-14.17,-46.41,-46.41,0,*68
1513461884.57,36962,7.06,72332.3,-14.21,-46.41,-46.41,0,*6E
1513461885.84,36963,7.06,72334.3,-14.21,-46.55,-46.61,0,*68
1513461887.09,36964,7.06,72332.5,-14.21,-46.75,-46.75,0,*68
1513461888.34,36965,7.06,72330.3,-14.17,-46.55,-46.55,0,*6C
1513461889.62,36966,7.06,72336.3,-14.21,-46.35,-46.41,0,*69
1513461890.89,36967,7.06,72330.8,-14.17,-46.55,-46.41,0,*6B
1513461892.16,36968,7.06,72334.3,-14.17,-46.61,-46.75,0,*64
1513461893.43,36969,7.06,72332.0,-14.17,-46.61,-46.55,0,*67
1513461894.71,36970,7.06,72332.3,-14.21,-46.55,-46.61,0,*6A
1513461895.96,36971,7.06,72336.0,-14.17,-46.83,-46.83,0,*69
1513461897.23,36972,7.06,72332.0,-14.17,-46.97,-47.03,0,*66
1513461898.49,36973,7.06,72334.3,-14.21,-46.83,-46.97,0,*6B
1513461899.74,36974,7.06,72334.3,-14.21,-46.97,-46.97,0,*69
1513461900.99,36975,7.06,72338.8,-14.17,-46.83,-46.97,0,*68
1513461902.27,36976,7.06,72334.0,-14.21,-46.61,-46.83,0,*67
1513461903.52,36977,7.06,72334.8,-14.21,-46.75,-46.75,0,*6A
1513461904.78,36978,7.06,72332.3,-14.21,-46.97,-46.97,0,*65
1513461906.05,36979,7.06,72332.3,-14.21,-46.41,-46.55,0,*61
1513461907.33,36980,7.06,72334.8,-14.21,-46.55,-46.41,0,*67
1513461908.6,36981,7.06,72332.3,-14.23,-46.61,-46.61,0,*61
1513461909.85,36982,7.06,72334.3,-14.21,-46.55,-46.75,0,*62
1513461911.1,36983,7.06,72332.0,-14.17,-46.83,-46.75,0,*6D
1513461912.37,36984,7.06,72330.3,-14.21,-46.97,-47.03,0,*6A
1513461913.65,36985,7.06,72334.8,-14.23,-46.89,-47.03,0,*66
1513461914.89,36986,7.06,72332.5,-14.23,-46.83,-47.03,0,*6F
1513461916.14,36987,7.06,72330.8,-14.23,-47.03,-47.09,0,*6D
1513461917.37,36988,7.06,72332.5,-14.23,-47.09,-47.31,0,*63
1513461918.64,36989,7.06,72332.8,-14.23,-46.89,-47.03,0,*6A
1513461919.89,36990,7.06,72334.3,-14.25,-47.09,-47.31,0,*6C
1513461921.14,36991,7.06,72332.3,-14.23,-47.09,-47.23,0,*68
1513461922.39,36992,7.06,72336.8,-14.25,-47.09,-47.31,0,*6E
1513461923.69,36993,7.06,72336.0,-14.25,-46.89,-46.89,0,*64
1513461924.96,36994,7.06,72334.8,-14.25,-47.03,-47.09,0,*69
1513461926.24,36995,7.06,72332.5,-14.25,-46.69,-46.83,0,*66
1513461927.45,36996,7.06,72336.0,-14.27,-46.75,-46.97,0,*6F
1513461928.7,36997,7.06,72336.3,-14.27,-46.89,-46.97,0,*6D
1513461929.98,36998,7.06,72332.8,-14.25,-46.83,-46.89,0,*65
1513461931.25,36999,7.06,72334.8,-14.23,-46.89,-47.03,0,*6B
1513461932.54,37000,7.06,72334.3,-14.25,-47.03,-47.03,0,*66
1513461933.84,37001,7.06,72330.8,-14.25,-46.69,-46.61,0,*6F
1513461935.13,37002,7.06,72334.8,-14.25,-46.69,-46.69,0,*64
1513461936.41,37003,7.06,72332.5,-14.25,-46.83,-46.89,0,*6F
1513461937.71,37004,7.06,72332.0,-14.25,-46.89,-47.03,0,*61
1513461938.97,37005,7.06,72332.8,-14.23,-47.03,-47.03,0,*65
1513461940.27,37006,7.06,72334.3,-14.25,-46.61,-46.61,0,*60
1513461941.57,37007,7.06,72332.8,-14.25,-46.49,-46.49,0,*61
1513461942.86,37008,7.06,72332.0,-14.25,-46.69,-46.69,0,*6E
1513461944.16,37009,7.06,72330.3,-14.25,-46.69,-46.69,0,*6F
1513461945.45,37010,7.06,72332.0,-14.25,-46.69,-46.69,0,*67
1513461946.75,37011,7.06,72332.5,-14.25,-46.69,-46.69,0,*66
1513461948.04,37012,7.06,72334.5,-14.25,-46.69,-46.69,0,*65
1513461949.32,37013,7.06,72330.8,-14.25,-46.69,-46.83,0,*60
1513461950.61,37014,7.06,72332.0,-14.25,-46.61,-46.61,0,*63
1513461951.91,37015,7.06,72334.5,-14.25,-46.61,-46.61,0,*62
1513461953.15,37016,7.06,72338.3,-14.27,-46.69,-46.55,0,*6C
1513461954.43,37017,7.06,72334.5,-14.25,-46.83,-46.69,0,*64
1513461955.7,37018,7.06,72334.0,-14.25,-46.83,-46.89,0,*65
1513461956.99,37019,7.06,72332.8,-14.25,-46.89,-46.83,0,*64
1513461958.26,37020,7.06,72334.5,-14.25,-46.69,-46.83,0,*60
1513461959.54,37021,7.06,72334.8,-14.25,-47.23,-47.31,0,*66
1513461960.8,37022,7.06,72332.5,-14.25,-47.09,-47.03,0,*6C
1513461962.08,37023,7.06,72334.5,-14.25,-47.09,-47.23,0,*6F
1513461963.3,37024,7.06,72332.3,-14.27,-46.97,-46.97,0,*62
1513461964.52,37025,7.06,72328.3,-14.27,-46.75,-46.75,0,*63
1513461965.74,37026,7.06,72334.8,-14.27,-46.97,-47.09,0,*66
1513461966.97,37027,7.06,72334.8,-14.27,-46.97,-47.09,0,*67
1513461968.22,37028,7.06,72336.8,-14.27,-46.97,-46.89,0,*61
1513461969.44,37029,7.06,72334.0,-14.27,-46.75,-46.75,0,*6F
1513461970.65,37030,7.06,72334.8,-14.27,-46.75,-46.75,0,*67
1513461971.92,37031,7.06,72332.0,-14.27,-46.69,-46.89,0,*68
1513461973.17,37032,7.06,72332.8,-14.27,-46.69,-46.55,0,*6A
1513461974.44,37033,7.06,72334.8,-14.27,-46.41,-46.27,0,*64
1513461975.69,37034,7.06,72332.3,-14.27,-46.55,-46.49,0,*6E
1513461976.96,37035,7.06,72332.0,-14.27,-46.89,-46.69,0,*6C
1513461978.21,37036,7.06,72334.0,-14.27,-46.69,-46.55,0,*6E
1513461979.48,37037,7.06,72338.8,-14.27,-46.69,-46.49,0,*62
1513461980.73,37038,7.06,72336.0,-14.27,-46.55,-46.49,0,*62
1513461982.01,37039,7.06,72332.3,-14.27,-46.49,-46.49,0,*6E
1513461983.31,37040,7.06,72336.3,-14.25,-46.49,-46.61,0,*68
1513461984.56,37041,7.06,72338.0,-14.25,-46.35,-46.21,0,*66
1513461985.83,37042,7.06,72336.3,-14.27,-46.07,-46.07,0,*62
1513461987.08,37043,7.06,72334.3,-14.27,-46.07,-46.21,0,*67
1513461988.33,37044,7.06,72332.0,-14.25,-46.35,-46.21,0,*63
1513461989.61,37045,7.06,72330.3,-14.23,-46.61,-46.49,0,*6B
1513461990.89,37046,7.06,72328.0,-14.23,-46.61,-46.49,0,*68
1513461992.19,37047,7.06,72332.3,-14.25,-46.49,-46.41,0,*6D
1513461993.49,37048,7.06,72334.0,-14.25,-46.61,-46.49,0,*60
1513461994.74,37049,7.06,72334.0,-14.25,-46.35,-46.35,0,*6B
1513461996.04,37050,7.06,72332.0,-14.25,-46.49,-46.49,0,*63
1513461997.32,37051,7.06,72334.3,-14.25,-46.69,-46.83,0,*66
1513461998.59,37052,7.06,72338.3,-14.23,-46.69,-46.69,0,*67
1513461999.89,37053,7.06,72334.8,-14.25,-46.49,-46.61,0,*6A
1513462001.19,37054,7.06,72334.0,-14.25,-46.61,-46.49,0,*6D
1513462002.44,37055,7.06,72338.5,-14.25,-46.35,-46.21,0,*63
1513462003.67,37056,7.06,72336.0,-14.23,-46.01,-45.95,0,*6D
1513462004.92,37057,7.06,72332.0,-14.25,-46.35,-46.21,0,*61
1513462006.19,37058,7.06,72336.0,-14.23,-46.41,-46.41,0,*6D
1513462007.46,37059,7.06,72338.5,-14.23,-46.61,-46.61,0,*6C
1513462008.73,37060,7.06,72334.0,-14.23,-46.61,-46.49,0,*6C
1513462010.01,37061,7.06,72332.0,-14.23,-46.61,-46.49,0,*6D
1513462011.26,37062,7.06,72332.8,-14.23,-47.03,-46.83,0,*6D
1513462012.5,37063,7.06,72332.0,-14.23,-46.83,-46.83,0,*65
1513462013.76,37064,7.06,72336.0,-14.25,-47.03,-47.09,0,*6E
1513462015.03,37065,7.06,72336.0,-14.23,-46.69,-46.61,0,*6B
1513462016.29,37066,7.06,72336.3,-14.23,-46.83,-46.89,0,*6A
1513462017.58,37067,7.06,72336.3,-14.25,-46.69,-46.69,0,*67
1513462018.88,37068,7.06,72332.8,-14.25,-46.61,-46.49,0,*62
1513462020.18,37069,7.06,72332.8,-14.25,-46.89,-47.03,0,*6A
1513462021.4,37070,7.06,72336.0,-14.23,-47.09,-47.09,0,*67
1513462022.7,37071,7.06,72332.5,-14.25,-46.89,-47.03,0,*63
1513462023.99,37072,7.06,72336.8,-14.25,-47.03,-47.03,0,*63
1513462025.28,37073,7.06,72332.8,-14.25,-47.03,-47.03,0,*62
1513462026.58,37074,7.06,72336.3,-14.25,-46.89,-46.89,0,*65
1513462027.85,37075,7.06,72336.8,-14.25,-47.03,-47.09,0,*6E
1513462029.15,37076,7.06,72338.5,-14.25,-47.23,-47.23,0,*67
1513462030.45,37077,7.06,72338.5,-14.25,-47.23,-47.23,0,*66
1513462031.67,37078,7.06,72336.5,-14.27,-47.17,-47.31,0,*6F
1513462032.9,37079,7.06,72334.0,-14.27,-47.31,-47.31,0,*6A
1513462034.11,37080,7.06,72334.8,-14.27,-47.17,-47.31,0,*68
1513462035.33,37081,7.06,72338.0,-14.27,-47.17,-47.31,0,*69
1513462036.55,37082,7.06,72334.0,-14.27,-47.17,-47.09,0,*61
1513462037.83,37083,7.06,72336.3,-14.27,-46.89,-46.89,0,*6F
1513462039.04,37084,7.06,72334.5,-14.27,-47.17,-47.09,0,*67
1513462040.28,37085,7.06,72336.0,-14.27,-46.75,-46.89,0,*6A
1513462041.53,37086,7.06,72338.3,-14.27,-46.55,-46.49,0,*67
1513462042.8,37087,7.06,72338.3,-14.27,-46.41,-46.27,0,*6B
1513462044.07,37088,7.06,72334.3,-14.27,-46.41,-46.27,0,*64
1513462045.32,37089,7.06,72334.5,-14.27,-46.27,-46.21,0,*63
1513462046.59,37090,7.06,72336.8,-14.27,-46.41,-46.27,0,*6D
1513462047.86,37091,7.06,72334.5,-14.27,-46.49,-46.41,0,*64
1513462049.13,37092,7.06,72334.0,-14.27,-46.69,-46.69,0,*6F
1513462050.38,37093,7.06,72334.8,-14.27,-46.69,-46.75,0,*63
1513462051.62,37094,7.06,72334.3,-14.27,-46.75,-46.69,0,*64
1513462052.87,37095,7.06,72338.8,-14.27,-46.21,-46.07,0,*6C
1513462054.12,37096,7.06,72336.8,-14.27,-46.55,-46.49,0,*66
1513462055.36,37097,7.06,72334.0,-14.27,-46.55,-46.41,0,*6F
1513462056.62,37098,7.06,72332.5,-14.25,-46.35,-46.35,0,*67
1513462057.89,37099,7.06,72334.3,-14.25,-46.21,-46.15,0,*61
1513462059.19,37100,7.06,72336.8,-14.25,-46.49,-46.41,0,*6F
1513462060.46,37101,7.06,72336.3,-14.25,-46.41,-46.35,0,*65
1513462061.73,37102,7.06,72334.0,-14.23,-46.61,-46.69,0,*6B
1513462063.03,37103,7.06,72336.5,-14.25,-46.49,-46.41,0,*6C
1513462064.29,37104,7.06,72336.5,-14.25,-46.35,-46.35,0,*63
1513462065.59,37105,7.06,72338.0,-14.25,-46.49,-46.41,0,*6A
1513462066.89,37106,7.06,72332.0,-14.25,-46.61,-46.49,0,*6B
1513462068.16,37107,7.06,72332.3,-14.23,-46.41,-46.49,0,*6E
1513462069.43,37108,7.06,72334.0,-14.25,-46.41,-46.21,0,*69
1513462070.69,37109,7.06,72336.5,-14.23,-46.01,-46.15,0,*6D
1513462071.95,37110,7.06,72334.0,-14.23,-46.15,-46.01,0,*65
1513462073.21,37111,7.06,72334.0,-14.23,-46.15,-46.01,0,*64
1513462074.46,37112,7.06,72334.0,-14.23,-46.15,-46.21,0,*65
1513462075.72,37113,7.06,72334.0,-14.23,-46.15,-46.01,0,*66
1513462076.95,37114,7.06,72332.8,-14.23,-46.01,-45.95,0,*6A
1513462078.23,37115,7.06,72332.5,-14.23,-46.15,-45.81,0,*6B
1513462079.54,37116,7.06,72338.0,-14.21,-46.27,-46.15,0,*65
1513462080.76,37117,7.06,72336.0,-14.23,-46.21,-46.21,0,*67
1513462081.98,37118,7.06,72334.5,-14.23,-46.21,-46.21,0,*68
1513462083.29,37119,7.06,72338.8,-14.21,-46.27,-46.15,0,*6A
1513462084.6,37120,7.06,72334.5,-14.17,-46.27,-46.15,0,*65
1513462085.88,37121,7.06,72338.8,-14.21,-46.35,-46.15,0,*62
1513462087.14,37122,7.06,72338.8,-14.21,-46.55,-46.55,0,*63
1513462088.42,37123,7.06,72338.0,-14.17,-46.35,-46.15,0,*65
1513462089.69,37124,7.06,72336.5,-14.17,-46.15,-45.95,0,*6B
1513462091.0,37125,7.06,72338.8,-14.17,-46.15,-46.07,0,*62
1513462092.27,37126,7.06,72336.0,-14.13,-46.27,-46.21,0,*60
1513462093.58,37127,7.06,72334.3,-14.17,-46.15,-46.15,0,*63
1513462094.86,37128,7.06,72334.8,-14.13,-46.07,-46.01,0,*6E
1513462096.1,37129,7.06,72332.5,-14.15,-46.07,-45.87,0,*64
1513462097.35,37130,7.06,72330.5,-14.13,-46.01,-45.87,0,*6C
1513462098.58,37131,7.06,72332.3,-14.15,-46.01,-46.01,0,*66
1513462099.85,37132,7.06,72338.3,-14.15,-46.49,-46.27,0,*6D
1513462101.1,37133,7.06,72334.8,-14.15,-46.55,-46.49,0,*69
1513462102.35,37134,7.06,72336.5,-14.15,-46.55,-46.49,0,*6E
1513462103.58,37135,7.06,72332.8,-14.15,-46.35,-46.21,0,*67
1513462104.83,37136,7.06,72332.5,-14.15,-46.21,-46.07,0,*65